This is the latest recevied weather packets stored in our database for station/object K4XP. If no packets are shown the sender has not sent any weather packets the latest 10 day(s).
| Time | Temp. | Humidity | Pressure | Rain* | Wind** | Luminosity | Snow |
|---|---|---|---|---|---|---|---|
| 1778003111 | 23.89° C | 41% | 1016.1 hPa | 0 mm | - | - | - |
| 1778002827 | 23.89° C | 43% | 1016.1 hPa | 0 mm | - | - | - |
| 1778002523 | 23.89° C | 43% | 1016.1 hPa | 0 mm | - | - | - |
| 1778002220 | 23.89° C | 41% | 1016.2 hPa | 0 mm | - | - | - |
| 1778001919 | 23.89° C | 41% | 1016.1 hPa | 0 mm | - | - | - |
| 1778001616 | 23.33° C | 43% | 1016 hPa | 0 mm | - | - | - |
| 1778001312 | 23.89° C | 42% | 1016 hPa | 0 mm | - | - | - |
| 1778001028 | 23.89° C | 44% | 1016 hPa | 0 mm | - | - | - |
| 1778000724 | 23.89° C | 42% | 1016 hPa | 0 mm | - | - | - |
| 1778000422 | 23.33° C | 44% | 1016.1 hPa | 0 mm | - | - | - |
| 1778000119 | 23.33° C | 43% | 1016.1 hPa | 0 mm | - | - | - |
| 1777999819 | 23.33° C | 45% | 1016.1 hPa | 0 mm | - | - | - |
| 1777999515 | 23.33° C | 44% | 1016.2 hPa | 0 mm | - | - | - |
| 1777999212 | 23.33° C | 45% | 1016.1 hPa | 0 mm | - | - | - |
| 1777998927 | 23.33° C | 46% | 1016 hPa | 0 mm | - | - | - |
| 1777998624 | 23.33° C | 49% | 1016.1 hPa | 0 mm | - | - | - |
| 1777998319 | 22.78° C | 48% | 1016.2 hPa | 0 mm | - | - | - |
| 1777998017 | 23.33° C | 49% | 1016.3 hPa | 0 mm | - | - | - |
| 1777997717 | 22.78° C | 54% | 1016.5 hPa | 0 mm | - | - | - |
| 1777997414 | 22.78° C | 53% | 1016.4 hPa | 0 mm | - | - | - |
| 1777997128 | 22.22° C | 54% | 1016.4 hPa | 0 mm | - | - | - |
| 1777996824 | 22.22° C | 53% | 1016.4 hPa | 0 mm | - | - | - |
| 1777996521 | 21.67° C | 52% | 1016.5 hPa | 0 mm | - | - | - |
| 1777996216 | 22.22° C | 53% | 1016.7 hPa | 0 mm | - | - | - |
| 1777995912 | 21.67° C | 55% | 1016.9 hPa | 0 mm | - | - | - |
* Rain latest hour (hover to see other rain measurements)
** Current wind speed in m/s (hover to see current wind gust speed)